Terminal Aerodrome Forecast
Issued by NWS

Home | Current Version | Previous Version | Text Only | Print | Product List | Glossary On
Versions: 1 2 3 4 5 6 7 8 9 10 11 12 13 14 15 16 17 18 19 20 21 22 23 24 25
000
FTUS45 KSLC 300543
TAFPVU
TAF
KPVU 300543Z 3006/3106 12008KT P6SM BKN150
     FM301500 14007KT P6SM SCT080 BKN120
     FM302200 27018G26KT P6SM SCT080 BKN120
     FM310000 31012G20KT P6SM SCT080 BKN120
      AMD LTD TO CLD VIS AND WIND=

USA.gov is the U.S. government's official web portal to all federal, state and local government web resources and services.